Location: Pine Mountain Observatory
(43.7910°N, 120.9377°W)
Time: 23:56:47
(UTC-07:00)

APEX - Visible Passes

Search period start: 23 June 2017 00:00
Search period end: 03 July 2017 00:00
Orbit: 332 x 1198 km, 69.9° (Epoch: 23 June)

Date Brightness Start Highest point End Pass type
(mag) Time Alt. Az. Time Alt. Az. Time Alt. Az.
23 Jun 4.9 21:24:48 10° SSW 21:32:05 73° ESE 21:39:43 10° NNE visible
23 Jun 6.7 23:08:52 10° WSW 23:15:25 31° NW 23:22:00 10° NNE visible
24 Jun 7.9 00:58:57 10° NW 01:00:36 11° NNW 01:02:14 10° NNW visible
24 Jun 7.7 04:30:33 10° N 04:33:24 13° NNE 04:36:03 10° NE visible
24 Jun 6.2 22:29:43 10° WSW 22:36:45 42° NW 22:43:53 10° NNE visible
25 Jun 7.7 00:17:53 10° WNW 00:21:29 14° NNW 00:25:02 10° N visible
25 Jun 5.7 21:50:53 10° SW 21:58:13 58° WNW 22:05:41 10° NNE visible
25 Jun 7.6 23:37:36 10° WNW 23:42:29 18° NW 23:47:16 10° N visible
26 Jun 5.2 21:12:20 10° SSW 21:19:47 80° WNW 21:27:25 10° NNE visible
26 Jun 7.3 22:57:45 10° W 23:03:34 23° NW 23:09:19 10° N visible
27 Jun 7.6 04:17:43 10° N 04:21:41 16° NE 04:25:13 10° ENE visible
27 Jun 6.9 22:18:13 10° WSW 22:24:47 31° NW 22:31:16 10° NNE visible
28 Jun 8.1 00:08:52 10° NNW 00:09:56 10° NNW 00:11:00 10° NNW visible
28 Jun 7.8 03:40:09 10° N 03:42:39 12° NNE 03:45:00 10° NE visible
28 Jun 6.4 21:39:02 10° WSW 21:46:06 41° NW 21:53:08 10° NNE visible
28 Jun 8.0 23:27:24 10° WNW 23:30:48 13° NNW 23:34:07 10° N visible
29 Jun 6.5 04:43:02 10° NNW 04:48:34 31° NE 04:53:05 10° ESE visible
29 Jun 7.8 22:47:01 10° WNW 22:51:46 17° NW 22:56:23 10° N visible
30 Jun 7.1 04:05:00 10° N 04:09:45 22° NE 04:13:48 10° E visible
30 Jun 7.5 22:07:05 10° W 22:12:50 23° NW 22:18:26 10° N visible
01 Jul 7.3 03:27:08 10° N 03:30:50 16° NE 03:34:06 10° ENE visible
01 Jul 7.2 21:27:30 10° WSW 21:34:02 30° NW 21:40:22 10° NNE visible
02 Jul 7.6 02:49:40 10° N 02:51:46 12° NNE 02:53:46 10° NE visible
02 Jul 5.4 04:30:29 10° NNW 04:36:19 45° NE 04:40:52 10° SE visible
02 Jul 8.0 22:36:51 10° NW 22:39:59 13° NNW 22:43:02 10° N visible
